map of LDH home
LDH - Airport
Location
City:  Lord Howe Island, New South Wales, Australia
ICAO:YLHI
IATA:LDH

Details
Type:Airport (Aerodrome, Airfield)
Latitude:3132'19"S (-31.538610)
Longitude:15904'35"E (159.076389)
Elevation:17 ft (5 m)
Variation:14.06E (WMM2015 magnetic declination)
0.02 annual change
Runways:1
Longest:2903 ft (885 m)

Time
Time Zone:UTC+10:30 (DST+11)
Local Time:

Weather
METAR:YLHI 200800Z AUTO 07013KT 9999 // NCD 21/17 Q1019
TAF:YLHI 192303Z 2000/2024 07010KT 9999 -SHRA SCT025
FM201200 08005KT 9999 NSW SCT030

Related Locations
Nearby:
Farthest:FNC: 12187 mi / 19613 km
Funchal [Madeira Airport], 30, PT

Find:

   beyond  
but within

Other Information
Maps:
NOTAMs:
Links:
Sources:

  
flag of Australia
flag of New South Wales
flag of Lord Howe Island
  

Sectional Chart

Flight Planning
at skyvector.com

Satellite Image

Google Maps Satellite view

 

Copyright © 2004-2018 Karl L. Swartz. All rights reserved.
The Great Circle Mapper name and logo are trademarks of the Great Circle Mapper.
All other trademarks mentioned herein belong to their respective owners.
Please see credits for attibutions and further copyright information.

  Follow gcmap on Facebook Follow gcmap on Twitter Follow gcmap on Google+ GCmap on LinkedIn

hCard Microformat

Geo Microformat